Location: American Medical Response
(33.3472°N, 96.5511°W)
Time: 14:12:10
(UTC+00:00)

SL-4 R/B - Pass Details

Date: 10 July 2022
Orbit: 425 x 653 km, 51.6° (Epoch: 18 August)

Event Time Altitude Azimuth Distance (km) Brightness Sun altitude
Rises 03:55:08 0° 246° (WSW) 2,372 5.5 -23.1°
Reaches altitude 10° 03:57:21 10° 256° (WSW) 1,508 4.5 -23.4°
Maximum altitude 04:00:25 32° 322° (NW) 754 3.3 -23.8°
Drops below altitude 10° 04:03:34 10° 28° (NNE) 1,543 4.6 -24.2°
Sets 04:05:52 0° 39° (NE) 2,438 5.5 -24.5°
